{"data":{"norad_id":48388,"intl_designator":"2021-038AM","name":"STARLINK-2594","alt_names":[],"object_type":"PAYLOAD","status":"ACTIVE","operator":null,"country":"US","launch_date":"2021-05-04","launch_site_code":"AFETR","launch_vehicle":null,"mission":null,"orbit_class":"UNKNOWN","rcs_meters":null,"size_class":null,"mass_kg":null,"dimensions":null,"purposes":["comms"],"wikipedia_slug":null,"has_3d_model":false,"image_url":null,"decayed_at":null,"tle_current":{"epoch":"2026-09-19T05:26:58.403040Z","epoch_age_seconds":143705,"freshness":"FRESH","line1":"1 48388U 21038AM  26262.22706485  .00001041  00000+0  45319-4 0  9998","line2":"2 48388  53.1645 164.6377 0001335  81.9976 278.1177 15.31700653296914","mean_motion":15.31700653,"eccentricity":0.0001335,"inclination_deg":53.1645,"raan_deg":164.6377,"arg_perigee_deg":81.9976,"mean_anomaly_deg":278.1177,"bstar":4.5319e-5,"rev_number":29691,"period_min":94.013147881057,"perigee_km":469.82372384832,"apogee_km":471.65237348632,"semimajor_km":6848.8750486673,"source":"CELESTRAK","updated_at":"2026-09-20T09:00:38.945244Z"}}}